Regional Weather Roundup
Issued by NWS

Home | Current Version | Previous Version | Graphics & Text | Print | Product List | Glossary On
Versions: 1 2 3 4 5 6 7 8 9 10 11 12 13 14 15 16 17 18 19 20 21 22 23 24 25 26 27 28 29 30 31 32 33 34 35 36 37 38 39 40 41 42 43 44 45 46 47 48 49 50
000
ASUS43 KMPX 291910
RWRMN
WEATHER ROUNDUP FOR MINNESOTA
NATIONAL WEATHER SERVICE TWIN CITIES/CHANHASSEN MN
200 PM CDT FRI MAY 29 2015


NOTE: "FAIR" INDICATES FEW OR NO CLOUDS BELOW 12,000 FEET WITH NO
SIGNIFICANT WEATHER AND/OR OBSTRUCTIONS TO VISIBILITY. N/A MEANS
CURRENT SKY AND/OR WEATHER CONDITIONS ARE NOT AVAILABLE.

MNZ060>063-068>070-292000-
   Twin Cities Metro

CITY           SKY/WX    TMP DP  RH WIND       PRES   REMARKS
TWIN CITIES    CLOUDY    71  63  75 W9        29.90S
ST PAUL        LGT RAIN  71  64  78 W12       29.89F
CRYSTAL        LGT RAIN  67  63  87 NW12      29.90R
BLAINE         LGT RAIN  66  66 100 NW12      29.91R
LAKEVILLE      CLOUDY    66  63  88 W6        29.90F
EDEN PRAIRIE   LGT RAIN  69  63  81 NW9       29.89S
SOUTH ST PAUL  CLOUDY    72  63  73 SW8       29.90S
LAKE ELMO      FAIR      72  64  78 SW10      29.90S
$$
MNZ001>005-007-008-013>017-022>024-027-028-292000-
   Northwest Minnesota

CITY           SKY/WX    TMP DP  RH WIND       PRES   REMARKS
BEMIDJI        CLOUDY    48  42  78 N15G21    30.08R
HALLOCK        MOSUNNY   54  37  54 N24G31    30.19S
ROSEAU         MOSUNNY   54  43  66 NW18      30.13S
WARROAD        MOSUNNY   50  39  66 NW17G23   30.13S
THIEF RVR FALL CLOUDY    48  37  66 N17G24    30.14F
CROOKSTON      PTSUNNY   50  39  66 N24G31    30.16F
FOSSTON        CLOUDY    46  43  87 N18G26    30.12S
DETROIT LAKES  CLOUDY    48  43  81 N13G29    30.10R
MOORHEAD       CLOUDY    46  39  76 N25G31    30.15R
PARK RAPIDS    CLOUDY    51  43  74 N14       30.05R
MAHNOMEN       CLOUDY    47  41  79 N21G28    30.11S
$$
MNZ006-009>011-018-025>026-292000-
   North Central Minnesota

CITY           SKY/WX    TMP DP  RH WIND       PRES   REMARKS
BAUDETTE       CLOUDY    50  41  71 NW17G24   30.09R
FLAG ISLAND    SUNNY     48  37  66 N23G31    30.11S
INTL FALLS     CLOUDY    55  44  66 N13       30.03S
WASKISH        CLOUDY    52  43  71 NW9       30.08S
BIG FORK       CLOUDY    54  46  76 NW9       30.03R
LONGVILLE      CLOUDY    50  46  87 N10G17    30.03R
GRAND RAPIDS   CLOUDY    50  45  81 NW20      30.01S
CRANE LAKE     CLOUDY    50  48  93 NW14G20   30.01R
ORR            CLOUDY    52  46  82 NW10G20   29.98R
COOK           CLOUDY    52  50  93 NW9       30.00R
WALKER         CLOUDY    49  43  80 N9G17     30.05S
$$
MNZ012-019>021-037-292000-
   Northeast Minnesota

CITY           SKY/WX    TMP DP  RH WIND       PRES   REMARKS
DULUTH         LGT RAIN  64  56  75 N9        29.92S
HIBBING        CLOUDY    53  50  89 N16       29.98R
EVELETH        DRIZZLE   54  52  94 N13G18    29.98R
DULUTH HARBOR  CLOUDY    64  57  77 N10       29.91S
TWO HARBORS    CLOUDY    66  59  77 NW5       29.90R
SILVER BAY     CLOUDY    64  55  72 NW8       29.89R
GRAND MARAIS     N/A     42  40  92 SW13      29.86S
G MARAIS ARPRT DRIZZLE   59  52  77 NW15G21   29.90R
$$
MNZ029>031-032-039>041-046>048-054>057-064-292000-
   West Central Minnesota

CITY           SKY/WX    TMP DP  RH WIND       PRES   REMARKS
FERGUS FALLS   CLOUDY    50  43  76 N18       30.08R
WHEATON        CLOUDY    45  41  87 NW28G33   30.11R
MORRIS         DRIZZLE   52  50  93 NW23      30.02R
ALEXANDRIA     CLOUDY    52  50  93 N13G24    30.02R
ELBOW LAKE     CLOUDY    52  47  85 N21G29    30.04R
WADENA         CLOUDY    54  48  82 N13       30.02S
GLENWOOD       DRIZZLE   54  52  94 N17G25    30.00R
APPLETON       LGT RAIN  52  48  87 N24G35    30.01R
BENSON         RAIN      55  52  88 N16G25    30.00R
ORTONVILLE     DRIZZLE   48  45  87 N25G37    30.05R
MADISON        RAIN      50  48  93 N25G33    30.02S
WILLMAR        RAIN      61  61 100 N16G22    29.97R
$$
MNZ033>034-036-042>043-049>051-058-059-292000-
   Central Minnesota

CITY           SKY/WX    TMP DP  RH WIND       PRES   REMARKS
ST CLOUD       LGT RAIN  62  59  90 N14G20    29.93R
SAUK CENTRE    DRIZZLE   58  54  88 N13G23    29.98R
PAYNESVILLE    LGT RAIN  58  57  98 NW10G17   29.96R
AITKIN         CLOUDY    55  50  82 N14G22    29.97R
PINE RIVER     CLOUDY    50  48  93 N13G21    30.05S
BRAINERD       CLOUDY    53  51  93 N18G24    30.00R
STAPLES        CLOUDY    50  48  93 N14G24    30.02R
LONG PRAIRIE   CLOUDY    54  52  94 NW10G17   30.00R
LITTLE FALLS   DRIZZLE   59  54  82 N7G16     29.97R
LITCHFIELD     DRIZZLE   64  64 100 N7        29.94S
BUFFALO        LGT RAIN  64  60  88 NW7       29.93S
MAPLE LAKE     RAIN      65  64  94 N3        29.93F
$$
MNZ037-044-045-052-053-292000-
   East Central Minnesota

CITY           SKY/WX    TMP DP  RH WIND       PRES   REMARKS
PRINCETON      HVY RAIN  66  63  88 CALM      29.93R
MORA           DRIZZLE   64  59  82 N8        29.93R
CAMBRIDGE      HVY RAIN  66  57  72 CALM      29.90R
RUSH CITY      LGT RAIN  65  62  89 CALM      29.91R
MOOSE LAKE     CLOUDY    63  55  77 N10       29.92R
HINCKLEY       CLOUDY    68  61  77 N14       29.91S
CLOQUET        CLOUDY    63  55  77 N12       29.93F
MCGREGOR       CLOUDY    55  54  94 NW20      29.97R
$$
MNZ071>073-080-081-089-090-097-098-292000-
   Southwest Minnesota

CITY           SKY/WX    TMP DP  RH WIND       PRES   REMARKS
MONTEVIDEO     DRIZZLE   55  55 100 N20G26    29.99R
GRANITE FALLS  LGT RAIN  56  55  95 NW14G20   29.99R
CANBY          RAIN      49  48  94 N20G28    30.04R
MARSHALL       CLOUDY    52  46  82 N23G30    29.98S
REDWOOD FALLS  LGT RAIN  62  60  93 NW10      29.93S
OLIVIA         LGT RAIN  61  59  94 N10       29.93S
PIPESTONE      LGT RAIN  54  52  94 N16G24    29.97S
WINDOM         RAIN      63  61  94 N18G28    29.91S
WORTHINGTON    CLOUDY    59  54  82 N23G30    29.94R
JACKSON        CLOUDY    70  64  83 W5        29.90F
TRACY          CLOUDY    54  54 100 N14       29.97R
SLAYTON        HVY RAIN  52  52 100 NW15G22   29.97R
$$
MNZ065>067-074>077-082>085-091>093-292000-
   South Central Minnesota

CITY           SKY/WX    TMP DP  RH WIND       PRES   REMARKS
MANKATO        CLOUDY    66  63  88 N7        29.90S
NEW ULM        LGT RAIN  66  66 100 N6        29.90S
ST JAMES       CLOUDY    70  66  88 NW10      29.90S
FAIRMONT       CLOUDY    70  61  73 E6        29.89F
GLENCOE        RAIN      65  64  93 N10       29.91S
FARIBAULT      LGT RAIN  66  64  94 NW3       29.91F
OWATONNA       DRIZZLE   68  64  88 NW6       29.91S
WASECA         CLOUDY    68  64  88 N5        29.91S
ALBERT LEA     DRIZZLE   72  64  78 SW12      29.90S
$$
MNZ078>079-086>088-094>096-292000-
   Southeast Minnesota

CITY           SKY/WX    TMP DP  RH WIND       PRES   REMARKS
ROCHESTER      CLOUDY    74  64  71 SW15      29.90F
RED WING       CLOUDY    72  63  73 W9        29.89S
STANTON        HVY RAIN  69  63  81 W8        29.90S
DODGE CENTER   RAIN      64  63  94 CALM      29.91S
WINONA         CLOUDY    75  63  64 SW3       29.89F
AUSTIN         CLOUDY    72  64  78 SW13      29.90S
PRESTON        CLOUDY    71  61  69 SW7       29.92S
$$
ABBREVIATIONS USED IN REMARKS
   TC - TEMPERATURES IN CELSIUS
  WCI - WIND CHILL INDEX
   HX - HEAT INDEX
  VSB - VISIBILITY
$$



USA.gov is the U.S. government's official web portal to all federal, state and local government web resources and services.